Temperature
18 18 18 18 18 18 18 17 17 17 17 16 16 15 15 15 14 14 14 14 14 14 14 14 14 14 14 14 14 14 14 14 14 14 14 15 15 16 16 16 16 16 17
18 18 18 18 18 18 18 17 17 17 16 16 15 15 14 14 14 14 13 13 13 13 13 14 14 14 14 14 14 14 14 14 14 14 14 14 15 15 16 16 16 16 16
19 19 19 18 18 18 18 18 17 17 16 15 15 14 14 13 13 13 13 13 13 13 13 13 13 14 14 14 14 14 14 14 14 14 14 14 14 15 16 16 16 16 16
19 19 19 19 19 18 18 17 17 16 16 15 14 14 13 12 12 12 12 12 12 13 13 13 13 13 13 13 13 13 13 13 13 13 13 14 14 14 15 16 16 16 16
20 20 19 19 19 18 18 17 16 16 15 14 14 13 12 12 11 11 11 12 12 12 12 12 12 12 13 13 13 13 13 13 13 13 13 14 14 14 14 15 16 16 16
20 20 19 19 18 18 17 17 16 15 15 14 13 12 12 11 11 11 11 11 11 12 12 12 12 12 12 12 12 12 13 13 13 13 13 13 13 14 14 14 15 16 16
20 20 19 19 18 18 17 16 15 15 14 13 13 12 11 11 11 10 10 10 10 10 11 11 11 11 11 11 12 12 12 12 13 13 13 13 13 14 14 14 15 15 16
20 19 19 18 18 17 16 16 15 14 13 13 12 11 11 11 10 10 10 10 10 10 10 10 10 10 11 11 11 11 11 12 12 12 13 13 13 13 14 14 14 15 15
19 19 19 18 17 17 16 15 14 13 13 12 12 11 11 10 10 10 10 9 9 9 9 9 10 10 10 10 10 11 11 11 11 12 12 13 13 13 13 13 14 14 15
19 19 18 18 17 16 15 15 14 13 12 12 11 11 11 10 10 9 9 9 9 9 9 9 9 9 9 10 10 10 10 10 11 11 11 12 12 13 13 13 13 14 14
19 19 18 18 17 16 15 14 13 13 12 12 11 11 10 10 10 9 9 9 9 9 8 8 9 9 9 9 9 9 9 10 10 10 11 11 12 12 12 13 13 13 14
19 19 18 17 16 15 14 14 13 12 12 12 11 11 10 10 10 9 9 9 8 8 8 8 8 8 8 9 9 9 9 9 9 10 10 10 11 11 12 12 12 13 13
19 18 17 16 16 15 14 13 13 12 12 12 11 11 10 10 10 9 9 9 8 8 8 8 8 8 8 8 8 8 9 9 9 9 9 10 10 10 11 11 12 12 13
18 17 17 16 15 14 14 13 13 12 12 11 11 11 10 10 10 9 9 8 8 8 8 8 8 8 8 8 8 8 8 8 9 9 9 9 9 10 10 11 11 11 12
17 17 16 15 15 14 13 13 12 12 12 11 11 11 10 10 9 9 9 8 8 8 7 7 7 7 7 8 8 7 7 7 8 8 8 8 9 9 10 10 10 11 11
17 17 16 15 14 14 13 13 12 12 11 11 11 10 10 9 9 9 8 8 8 7 7 7 7 7 7 7 7 7 7 7 7 7 8 8 8 9 9 9 10 10 11
17 17 16 15 14 13 13 12 12 11 11 11 10 10 9 9 9 8 8 8 8 7 7 7 7 7 8 7 7 7 7 6 7 7 7 7 8 8 8 9 9 10 10
17 17 16 15 14 13 13 12 12 11 11 10 10 9 9 9 8 8 8 8 7 7 7 8 8 7 8 7 7 7 6 6 6 6 7 7 7 8 8 8 9 9 10
17 16 15 15 14 13 12 12 11 11 10 10 9 9 8 8 8 8 7 7 7 7 8 8 8 8 8 7 7 7 6 6 6 6 6 6 7 7 7 8 8 9 9
17 16 15 15 14 13 12 11 11 10 10 9 9 8 8 8 7 7 7 7 7 8 8 8 8 8 7 7 7 7 6 6 6 6 6 6 6 7 7 7 8 8 9
17 16 15 15 14 13 12 11 10 10 9 9 9 8 8 7 7 7 7 7 7 8 8 8 8 7 7 7 7 7 6 6 6 6 6 6 6 6 7 7 8 8 9
17 16 15 14 13 12 12 11 10 10 9 9 8 8 8 7 7 7 7 7 7 8 8 8 8 7 7 7 7 6 6 6 6 6 6 6 6 6 7 7 7 8 8
17 16 15 14 13 12 11 11 10 9 9 9 8 8 8 7 7 7 7 7 8 8 8 8 7 7 7 7 6 6 6 6 6 6 6 6 6 6 7 7 7 8 8
17 16 15 14 13 12 11 10 10 9 9 8 8 8 7 7 7 7 7 7 8 8 8 8 7 7 7 6 6 6 6 6 6 6 6 6 6 6 7 7 7 8 8
17 16 15 14 13 12 11 10 10 9 9 8 8 7 7 7 7 7 7 8 8 8 8 8 7 7 7 6 6 6 6 6 6 6 6 6 6 7 7 7 8 8 8
17 16 15 14 13 12 11 10 10 9 9 8 8 7 7 7 7 7 8 9 8 8 8 8 8 7 7 6 6 6 6 6 6 6 6 6 6 7 7 7 8 8 8
Wind_Speed
7 7 7 7 6 5 5 5 5 4 3 3 3 3 3 4 5 5 8 8 7 6 4 4 5 4 4 5 5 4 5 4 3 3 4 4 7 8 8 8 8 10 13
6 7 8 7 6 6 6 6 6 5 4 3 2 1 1 2 2 4 5 8 9 9 6 5 5 4 4 5 5 4 3 3 2 2 1 2 3 5 9 8 9 11 9
9 9 8 8 7 7 8 7 6 6 4 3 2 2 3 3 4 5 5 6 10 10 8 6 5 4 3 4 5 4 4 3 2 2 2 2 3 3 3 8 9 10 9
9 9 8 8 7 7 6 6 6 5 4 3 2 1 0 2 3 3 4 7 8 8 9 7 5 4 2 3 4 3 3 3 3 3 3 3 2 2 3 2 5 8 9
10 9 8 7 6 5 5 5 5 4 3 2 2 1 1 3 3 4 5 6 6 7 7 7 6 4 3 3 3 3 3 3 4 3 3 3 3 3 2 3 2 3 5
8 6 4 5 4 4 5 5 4 3 2 2 1 2 3 4 4 5 5 5 5 6 7 6 6 6 5 5 5 4 4 3 4 4 4 3 3 2 2 3 3 3 4
5 5 6 6 5 5 4 4 4 2 2 2 2 3 3 3 3 3 4 4 4 4 6 6 5 5 5 6 5 5 5 4 4 4 4 4 4 3 2 2 2 2 2
6 7 7 7 6 6 4 3 3 2 3 3 3 3 2 2 3 4 4 5 4 5 5 5 5 6 6 6 5 5 5 5 5 5 4 4 4 3 3 2 2 1 2
8 7 7 6 5 5 4 4 3 2 3 3 3 3 3 3 4 5 5 5 5 5 6 6 6 6 6 6 6 5 6 6 5 5 5 4 4 3 3 3 2 2 2
7 7 6 5 4 4 4 4 4 4 4 4 4 4 4 5 5 5 6 6 6 6 7 7 7 7 7 7 5 5 6 6 6 5 6 6 4 3 3 3 3 3 3
8 7 6 5 5 4 4 3 4 4 4 5 5 5 5 6 6 6 7 7 7 7 7 8 8 8 8 7 6 6 6 6 7 6 6 7 6 4 3 3 3 3 3
8 7 6 5 4 4 4 5 5 5 6 6 5 6 6 6 6 7 8 8 8 8 8 8 8 8 9 8 7 8 8 7 7 7 7 8 6 6 5 4 4 4 3
7 5 4 4 5 5 6 6 6 6 6 6 5 6 6 7 7 8 8 8 8 8 8 8 8 9 9 9 9 9 9 8 8 8 8 8 7 7 6 6 5 4 5
7 6 4 5 5 6 6 7 7 7 6 5 5 6 7 7 8 8 8 8 8 8 8 8 9 9 9 9 10 9 9 9 9 8 8 8 8 9 8 7 7 6 5
6 6 4 4 5 6 7 7 7 6 5 5 6 7 7 7 7 7 7 8 8 8 8 8 9 9 8 9 9 9 10 9 9 8 8 8 11 12 10 8 7 7 6
6 5 4 4 5 6 7 6 6 6 5 6 7 7 6 6 6 7 8 8 8 8 8 9 9 9 10 12 14 11 8 8 8 9 8 9 11 13 14 15 13 11 9
6 6 5 5 6 6 6 6 6 5 5 6 7 6 6 6 7 8 8 8 9 9 9 9 9 10 12 16 17 17 11 10 10 10 9 11 12 11 8 11 14 14 15
7 6 5 5 5 4 5 5 5 5 6 6 5 5 6 7 8 8 9 9 8 9 9 10 10 10 12 16 16 18 12 10 11 11 11 11 11 11 9 8 8 8 10
7 6 5 5 4 5 5 4 5 5 5 5 6 6 7 8 9 9 10 9 9 10 10 10 10 10 12 15 16 15 8 9 11 12 12 12 12 14 14 9 8 8 8
6 5 4 3 3 5 4 3 5 5 6 6 7 7 7 8 9 10 10 9 9 10 10 10 10 10 11 14 15 14 7 9 9 9 10 15 14 14 15 10 9 9 8
7 6 4 2 4 4 2 3 5 5 6 6 7 7 8 9 9 9 8 9 10 10 10 11 10 9 10 12 13 12 6 7 8 7 7 8 13 14 15 13 10 11 9
7 6 3 3 4 3 2 3 5 6 6 6 7 8 9 9 10 10 10 9 9 10 10 9 9 7 7 8 9 11 9 9 7 7 6 7 11 13 13 11 11 12 10
7 5 4 3 3 3 2 4 5 5 5 6 8 9 10 9 9 9 10 10 9 8 8 7 7 6 5 5 8 9 8 8 6 5 7 8 10 10 8 11 12 10 7
7 5 4 3 4 4 4 5 5 4 5 7 8 8 9 10 10 8 7 8 9 8 8 7 7 6 5 4 4 4 4 4 4 3 3 3 5 5 6 6 7 6 7
6 6 5 5 5 5 4 4 4 3 5 7 7 8 8 9 10 9 8 9 9 10 9 8 6 5 5 5 5 4 3 3 3 2 1 1 2 3 3 3 4 4 5
7 6 6 5 5 5 4 4 4 3 5 6 7 7 8 8 8 10 11 12 13 15 15 12 9 6 8 7 6 5 6 6 4 2 2 3 3 4 4 5 4 5 6
Wind_Direction
181 177 180 175 167 161 148 141 130 117 97 70 54 37 358 343 344 347 352 350 336 321 298 286 283 272 261 263 266 267 270 264 249 254 268 258 237 229 228 225 226 227 225
190 193 196 192 187 180 171 161 152 142 131 130 138 160 265 308 316 327 339 346 337 325 314 290 277 269 264 271 269 261 266 273 239 222 251 282 275 243 229 219 225 227 220
194 208 203 195 188 183 178 167 163 151 145 132 90 24 8 349 345 336 334 331 331 327 317 296 279 267 250 261 266 255 246 259 262 229 218 233 258 279 243 221 221 219 213
203 208 200 187 185 186 174 159 157 156 155 138 119 128 304 294 282 291 306 318 328 333 334 322 307 288 262 266 277 267 248 241 256 260 241 236 244 264 301 291 234 221 216
206 205 198 185 174 163 150 149 149 162 175 171 170 182 261 260 282 309 327 330 329 334 340 339 340 329 307 290 290 292 274 247 237 235 240 248 251 235 233 274 283 253 229
209 196 169 139 124 117 127 142 148 179 208 211 218 224 264 286 314 327 328 324 321 325 335 341 343 337 328 312 302 292 286 274 260 246 232 224 227 229 222 244 248 249 247
175 141 127 119 124 129 142 153 158 197 236 243 265 270 275 283 294 292 294 305 310 311 316 334 334 330 319 312 307 299 289 283 280 266 254 240 227 221 217 231 250 259 273
127 130 139 142 149 155 156 157 167 211 249 261 277 287 266 242 264 271 275 283 280 278 291 310 317 319 318 317 311 299 288 282 278 280 276 266 254 230 215 214 220 256 286
138 143 149 153 160 160 164 170 177 218 254 254 255 257 246 258 266 275 277 281 279 283 299 307 311 311 313 311 307 294 291 286 274 273 273 267 262 248 236 222 209 194 217
151 151 161 170 173 172 174 178 186 212 234 241 248 245 251 260 263 269 277 277 278 281 292 295 297 299 300 301 303 294 289 289 280 271 268 267 263 256 242 233 226 206 201
168 175 181 185 183 181 186 199 220 233 243 243 242 252 260 263 263 262 263 262 265 269 273 277 283 286 287 288 289 287 287 281 282 281 267 262 259 258 248 235 227 220 206
180 185 187 196 203 209 219 228 238 245 244 238 237 244 254 261 263 262 261 259 260 261 260 263 268 273 278 277 275 278 284 274 272 273 268 263 259 252 249 237 231 230 223
187 192 202 222 232 233 238 243 247 250 247 240 239 250 261 264 264 264 264 263 263 264 262 259 259 262 265 267 268 266 266 263 258 256 255 257 251 248 244 236 227 222 230
191 197 221 245 251 248 248 248 254 254 252 246 248 259 265 264 265 268 270 270 268 267 263 258 256 256 257 258 260 261 263 263 261 253 247 248 243 241 238 234 227 216 218
190 196 213 238 255 261 262 259 259 262 256 253 258 263 266 269 273 277 278 278 276 277 266 262 261 258 259 260 255 251 257 258 262 260 253 251 253 250 237 230 222 211 211
186 192 208 242 265 270 271 268 263 263 255 256 263 269 277 282 285 285 284 284 280 276 272 266 263 264 270 268 264 255 247 246 250 258 259 259 262 260 249 237 226 211 206
192 206 228 248 261 268 267 264 261 265 269 269 274 283 290 294 293 298 298 289 284 279 275 270 265 264 263 262 263 262 251 239 241 243 249 262 260 249 241 238 235 227 218
201 221 238 253 262 266 269 268 269 277 283 286 290 292 295 296 296 297 294 289 282 280 277 274 268 266 269 264 259 258 254 242 238 236 235 240 248 250 236 230 232 227 223
203 216 226 232 256 276 277 280 290 294 297 297 295 291 293 297 299 299 296 291 287 284 278 274 270 268 272 268 264 259 252 244 242 238 236 234 236 238 228 219 223 227 232
200 207 218 231 277 285 288 294 297 301 298 295 293 292 293 296 297 294 292 290 285 283 283 280 273 268 271 273 271 265 249 246 248 244 239 234 229 227 222 213 208 217 218
194 185 186 234 268 278 289 297 298 291 285 291 297 299 298 297 293 291 291 291 290 289 285 282 280 274 270 276 277 274 243 239 245 244 237 229 225 224 220 212 208 214 205
185 181 190 244 269 274 274 290 287 278 287 298 303 303 302 303 308 299 296 292 289 290 289 285 286 282 278 277 281 283 263 240 238 242 235 226 217 217 215 211 211 208 197
189 191 194 237 273 270 237 262 272 280 296 307 308 305 305 302 297 295 296 299 294 288 289 286 283 285 286 289 294 295 284 261 242 244 234 222 219 216 211 205 197 189 183
190 189 191 230 263 259 247 244 265 280 300 306 305 306 307 306 304 299 291 291 291 290 290 284 276 275 279 286 301 303 298 285 261 255 238 209 203 195 184 180 181 173 178
191 183 191 218 244 249 250 253 259 287 303 302 302 306 303 303 305 302 294 288 280 272 273 273 259 256 267 261 266 275 283 273 255 245 220 197 176 170 163 162 166 168 174
183 183 194 214 238 241 241 249 251 268 296 303 305 304 304 304 303 305 308 296 284 283 275 252 240 239 240 251 262 274 277 278 265 244 228 221 206 193 182 178 178 180 186
Height
1534 1533 1533 1533 1533 1533 1532 1531 1530 1529 1528 1526 1524 1522 1520 1518 1516 1514 1512 1511 1509 1508 1506 1504 1502 1500 1498 1496 1494 1492 1489 1487 1486 1484 1483 1483 1485 1486 1488 1491 1494 1498 1501
1534 1533 1532 1532 1532 1531 1530 1529 1528 1526 1525 1523 1521 1519 1517 1515 1513 1511 1509 1507 1506 1504 1502 1500 1498 1497 1495 1493 1491 1489 1486 1485 1483 1482 1481 1481 1481 1481 1482 1484 1488 1491 1494
1531 1531 1531 1530 1530 1529 1528 1527 1525 1524 1522 1520 1518 1516 1514 1511 1509 1506 1504 1503 1501 1500 1498 1496 1495 1493 1492 1490 1488 1486 1484 1483 1482 1481 1481 1480 1478 1477 1478 1480 1482 1485 1488
1529 1529 1528 1528 1528 1528 1527 1525 1523 1522 1520 1518 1516 1513 1510 1507 1505 1502 1500 1499 1497 1496 1495 1493 1491 1490 1488 1487 1485 1484 1482 1481 1479 1479 1478 1479 1478 1478 1476 1476 1478 1481 1483
1527 1526 1527 1527 1527 1526 1525 1523 1521 1520 1518 1516 1513 1510 1507 1505 1502 1500 1497 1496 1494 1493 1491 1489 1488 1487 1486 1484 1483 1481 1480 1478 1477 1477 1476 1476 1476 1476 1475 1474 1475 1476 1478
1525 1525 1526 1526 1526 1525 1523 1522 1520 1518 1516 1513 1511 1508 1505 1502 1499 1497 1495 1493 1491 1489 1488 1486 1484 1483 1482 1481 1480 1479 1477 1476 1475 1474 1474 1474 1474 1474 1474 1473 1472 1473 1474
1523 1524 1525 1525 1524 1523 1521 1520 1518 1516 1513 1511 1508 1505 1502 1499 1497 1494 1491 1489 1486 1484 1483 1481 1480 1479 1478 1477 1476 1475 1474 1473 1472 1471 1471 1471 1471 1471 1471 1471 1470 1470 1471
1523 1523 1523 1523 1522 1521 1519 1517 1515 1513 1511 1508 1505 1503 1500 1497 1494 1491 1488 1485 1483 1481 1479 1477 1476 1475 1474 1473 1472 1471 1470 1469 1468 1468 1467 1467 1467 1468 1468 1469 1469 1469 1469
1521 1522 1521 1520 1519 1518 1516 1514 1512 1510 1508 1505 1502 1499 1497 1494 1491 1488 1485 1482 1479 1477 1475 1473 1471 1470 1468 1467 1466 1465 1465 1464 1464 1464 1463 1463 1463 1464 1464 1465 1466 1468 1467
1520 1520 1519 1518 1517 1515 1513 1511 1509 1507 1504 1502 1499 1496 1493 1490 1487 1484 1481 1479 1476 1474 1471 1469 1467 1465 1463 1462 1461 1460 1459 1459 1459 1459 1459 1459 1459 1459 1460 1461 1463 1464 1466
1518 1517 1516 1515 1514 1512 1510 1508 1506 1503 1501 1498 1495 1492 1489 1486 1483 1480 1477 1475 1472 1470 1467 1465 1463 1461 1459 1457 1456 1454 1454 1453 1453 1453 1454 1454 1455 1455 1456 1457 1458 1460 1462
1515 1514 1514 1512 1511 1509 1506 1504 1502 1499 1497 1494 1491 1488 1485 1482 1479 1476 1473 1470 1468 1465 1463 1461 1458 1456 1454 1452 1451 1449 1448 1447 1447 1447 1448 1449 1450 1450 1451 1452 1453 1455 1457
1512 1512 1511 1509 1507 1505 1502 1500 1498 1495 1492 1490 1487 1484 1481 1477 1474 1471 1468 1465 1463 1460 1457 1455 1453 1451 1449 1447 1445 1444 1442 1441 1441 1441 1442 1443 1444 1445 1447 1448 1449 1451 1453
1509 1509 1507 1506 1503 1501 1498 1496 1493 1491 1488 1485 1482 1479 1476 1472 1469 1466 1463 1460 1457 1454 1451 1449 1447 1444 1442 1440 1439 1438 1436 1435 1435 1435 1435 1436 1438 1439 1441 1442 1444 1446 1448
1507 1505 1504 1502 1499 1497 1494 1492 1489 1486 1483 1480 1477 1474 1471 1467 1464 1460 1457 1453 1450 1447 1445 1442 1440 1438 1436 1434 1432 1431 1430 1429 1428 1428 1428 1429 1431 1432 1435 1436 1439 1441 1442
1503 1502 1500 1498 1495 1493 1490 1487 1484 1482 1479 1475 1472 1469 1465 1462 1458 1454 1450 1447 1443 1441 1438 1435 1433 1431 1429 1427 1426 1424 1423 1422 1422 1421 1421 1422 1423 1425 1427 1430 1432 1435 1437
1500 1498 1496 1494 1491 1488 1486 1483 1480 1477 1474 1470 1467 1464 1460 1456 1452 1448 1443 1440 1437 1434 1431 1429 1426 1424 1422 1420 1418 1417 1415 1414 1413 1413 1413 1413 1414 1417 1419 1422 1425 1428 1430
1495 1494 1492 1490 1487 1484 1481 1478 1475 1472 1469 1465 1462 1458 1454 1450 1445 1441 1437 1434 1431 1428 1425 1422 1420 1417 1415 1413 1410 1408 1407 1405 1405 1404 1405 1405 1406 1409 1412 1414 1417 1420 1424
1491 1490 1488 1486 1483 1480 1477 1474 1471 1467 1464 1460 1457 1453 1449 1444 1439 1435 1431 1428 1425 1422 1419 1416 1413 1410 1407 1405 1403 1400 1398 1396 1395 1395 1395 1396 1397 1400 1404 1407 1409 1413 1417
1487 1486 1484 1482 1479 1476 1473 1469 1466 1462 1459 1455 1451 1447 1443 1438 1433 1429 1425 1422 1419 1416 1413 1410 1408 1404 1401 1398 1395 1393 1390 1388 1386 1386 1386 1387 1389 1392 1395 1399 1402 1406 1410
1483 1482 1480 1477 1475 1472 1469 1465 1462 1458 1454 1450 1446 1442 1437 1433 1428 1424 1421 1418 1415 1411 1408 1405 1402 1399 1395 1391 1388 1386 1383 1381 1379 1378 1378 1379 1381 1384 1387 1391 1394 1399 1404
1479 1477 1475 1473 1470 1467 1464 1461 1457 1453 1449 1445 1441 1436 1432 1428 1424 1420 1416 1413 1410 1406 1403 1399 1396 1393 1390 1386 1383 1380 1378 1375 1373 1372 1372 1373 1375 1378 1381 1385 1389 1394 1399
1474 1473 1471 1469 1466 1463 1460 1456 1453 1449 1444 1440 1436 1432 1427 1423 1420 1416 1412 1409 1405 1402 1398 1394 1391 1388 1385 1381 1379 1376 1374 1372 1370 1369 1369 1369 1371 1373 1376 1380 1384 1389 1393
1469 1468 1466 1464 1462 1459 1456 1452 1448 1444 1440 1436 1432 1427 1423 1419 1416 1412 1409 1405 1401 1397 1394 1390 1386 1383 1380 1377 1375 1373 1371 1370 1368 1367 1367 1367 1368 1370 1373 1377 1381 1384 1389
1463 1462 1461 1459 1457 1454 1451 1448 1444 1440 1436 1432 1427 1423 1419 1416 1412 1408 1405 1401 1398 1394 1390 1386 1382 1379 1376 1374 1372 1370 1369 1368 1368 1367 1367 1366 1367 1368 1371 1374 1378 1381 1385
1458 1457 1456 1454 1453 1450 1447 1444 1440 1436 1432 1427 1423 1419 1416 1412 1409 1405 1400 1397 1394 1390 1386 1382 1379 1375 1373 1371 1369 1368 1368 1367 1367 1367 1366 1366 1367 1368 1370 1373 1376 1379 1383